EW2575 Weather Reports


Display with metric or nautical units.
time (UTC)temp
F
wind
direction
speed
MPH
gust
MPH
rain 1hr
in
rain 24hr
in
rain mn
in
humidity
%
barometer
mb
20260505213601 62 281 0.0 3.0 0.00 0.00 0.00 90 1015.0
20260505213102 62 281 1.0 3.0 0.00 0.00 0.00 90 1014.9
20260505212555 62 281 0.0 2.0 0.00 0.00 0.00 90 1014.8
20260505212055 62 281 0.0 2.0 0.00 0.00 0.00 90 1014.8
20260505211606 62 281 1.0 2.0 0.00 0.00 0.00 90 1014.8
20260505211055 62 281 0.0 1.0 0.00 0.00 0.00 90 1014.8
20260505210555 62 281 0.0 1.0 0.00 0.00 0.00 90 1014.7
20260505210055 62 281 0.0 1.0 0.00 0.00 0.00 90 1014.7
20260505205554 62 281 0.0 1.0 0.00 0.00 0.00 91 1014.7
20260505205053 62 281 0.0 1.0 0.00 0.00 0.00 91 1014.7
20260505204554 62 281 0.0 1.0 0.00 0.00 0.00 90 1014.7
20260505204053 61 281 0.0 2.0 0.00 0.00 0.00 90 1014.7
20260505203553 61 281 1.0 4.0 0.00 0.00 0.00 90 1014.8
20260505203054 61 281 2.0 4.0 0.00 0.00 0.00 90 1014.8
20260505202554 62 281 1.0 4.0 0.00 0.00 0.00 90 1014.8
20260505202052 62 281 1.0 3.0 0.00 0.00 0.00 90 1014.8
20260505201555 61 281 1.0 4.0 0.00 0.00 0.00 90 1014.8
20260505201053 62 281 2.0 4.0 0.00 0.00 0.00 89 1014.8
20260505200552 62 281 1.0 4.0 0.00 0.00 0.00 89 1014.7
20260505200059 62 281 2.0 4.0 0.00 0.00 0.00 89 1014.6
20260505195551 62 281 2.0 7.0 0.00 0.00 0.00 89 1014.6
20260505195052 62 305 4.0 7.0 0.00 0.00 0.00 88 1014.5
20260505194554 63 277 2.0 5.0 0.00 0.00 0.00 88 1014.3
20260505194051 63 263 2.0 4.0 0.00 0.00 0.00 87 1014.2
20260505193550 63 263 2.0 4.0 0.00 0.00 0.00 86 1014.3
20260505193051 64 263 2.0 4.0 0.00 0.00 0.00 87 1014.3
20260505192551 64 263 1.0 4.0 0.00 0.00 0.00 88 1014.3
20260505192053 64 263 1.0 4.0 0.00 0.00 0.00 88 1014.3
20260505191551 64 263 0.0 4.0 0.00 0.00 0.00 88 1014.3
20260505191051 64 263 1.0 4.0 0.00 0.00 0.00 89 1014.3
20260505190549 63 263 2.0 6.0 0.00 0.00 0.00 89 1014.5
20260505190052 63 279 2.0 5.0 0.00 0.00 0.00 89 1014.4
20260505185550 63 296 1.0 5.0 0.00 0.00 0.00 89 1014.6
20260505185050 63 275 3.0 8.0 0.00 0.00 0.00 89 1014.5
20260505184550 63 275 3.0 8.0 0.00 0.00 0.00 88 1014.6
20260505184050 63 258 3.0 8.0 0.00 0.00 0.00 88 1014.4
20260505183551 63 248 3.0 9.0 0.00 0.00 0.00 88 1014.4
20260505183102 64 282 5.0 9.0 0.00 0.00 0.00 88 1014.4
20260505182549 64 304 5.0 10.0 0.00 0.00 0.00 88 1014.3
20260505182051 64 249 5.0 10.0 0.00 0.00 0.00 88 1014.3
20260505181551 64 265 6.0 10.0 0.00 0.00 0.00 87 1014.4
20260505181049 64 286 5.0 9.0 0.00 0.00 0.00 87 1014.4
20260505180547 64 301 4.0 8.0 0.00 0.00 0.00 87 1014.4
20260505180051 64 241 5.0 10.0 0.00 0.00 0.00 86 1014.3
20260505175547 65 277 4.0 10.0 0.00 0.00 0.00 86 1014.4
20260505175047 65 269 7.0 10.0 0.00 0.00 0.00 84 1014.4
20260505174557 66 273 2.0 7.0 0.00 0.00 0.00 86 1014.4
20260505174047 65 242 4.0 8.0 0.00 0.00 0.00 85 1014.4
20260505173546 65 279 5.0 9.0 0.00 0.00 0.00 85 1014.5
20260505173046 65 248 3.0 9.0 0.00 0.00 0.00 85 1014.5
20260505172547 64 269 5.0 9.0 0.00 0.00 0.00 85 1014.5
20260505172048 64 264 5.0 11.0 0.00 0.00 0.00 86 1014.5
20260505171549 64 252 6.0 11.0 0.00 0.00 0.00 85 1014.6
20260505171045 65 258 8.0 11.0 0.00 0.00 0.00 84 1014.6
20260505170545 64 265 6.0 12.0 0.00 0.00 0.00 84 1014.5
20260505170045 65 268 7.0 12.0 0.00 0.00 0.00 84 1014.5
20260505165545 65 262 9.0 12.0 0.00 0.00 0.00 82 1014.5
20260505165045 66 271 7.0 12.0 0.00 0.00 0.00 83 1014.5
20260505164545 66 269 6.0 11.0 0.00 0.00 0.00 83 1014.6
20260505164044 66 283 7.0 14.0 0.00 0.00 0.00 82 1014.5
20260505163545 66 252 5.0 14.0 0.00 0.00 0.00 82 1014.5
20260505163044 66 257 8.0 13.0 0.00 0.00 0.00 82 1014.5
20260505162544 66 259 8.0 13.0 0.00 0.00 0.00 82 1014.5
20260505162044 67 232 9.0 13.0 0.00 0.00 0.00 81 1014.5
20260505161544 66 252 7.0 12.0 0.00 0.00 0.00 80 1014.6
20260505161045 66 269 7.0 12.0 0.00 0.00 0.00 78 1014.7
20260505160543 66 267 7.0 11.0 0.00 0.00 0.00 78 1014.7
20260505153042 66 276 8.0 13.0 0.00 0.00 0.00 80 1015.1
20260505152542 66 272 8.0 13.0 0.00 0.00 0.00 79 1015.2
20260505152042 67 262 8.0 15.0 0.00 0.00 0.00 80 1015.3
20260505151541 66 258 7.0 15.0 0.00 0.00 0.00 79 1015.2
20260505151041 67 280 8.0 11.0 0.00 0.00 0.00 77 1015.2
20260505150540 66 244 7.0 12.0 0.00 0.00 0.00 78 1015.2
20260505140537 67 250 7.0 15.0 0.00 0.00 0.00 74 1015.5
20260505125030 68 266 6.0 13.0 0.00 0.00 0.00 70 1015.8
20260505124535 68 265 5.0 10.0 0.00 0.00 0.00 71 1015.7
20260505124029 68 261 7.0 11.0 0.00 0.00 0.00 71 1015.8
20260505123528 67 301 7.0 12.0 0.00 0.00 0.00 71 1015.8
20260505123031 67 248 7.0 12.0 0.00 0.00 0.00 71 1015.8
20260505122527 68 269 5.0 11.0 0.00 0.00 0.00 70 1015.8
20260505122027 67 5 6.0 13.0 0.00 0.00 0.00 71 1015.9
20260505121534 67 278 3.0 11.0 0.00 0.00 0.00 72 1015.9
20260505121025 67 257 7.0 11.0 0.00 0.00 0.00 73 1016.0
20260505120526 67 261 7.0 11.0 0.00 0.00 0.00 73 1016.0
20260505120032 67 240 6.0 10.0 0.00 0.00 0.00 70 1016.0
20260505115523 67 288 5.0 10.0 0.00 0.00 0.00 70 1016.0
20260505115023 67 272 5.0 11.0 0.00 0.00 0.00 71 1016.1
20260505114521 67 259 7.0 11.0 0.00 0.00 0.00 71 1016.1
20260505114016 67 261 7.0 10.0 0.00 0.00 0.00 70 1015.9
20260505113515 68 261 3.0 10.0 0.00 0.00 0.00 71 1015.9
20260505113014 67 268 6.0 10.0 0.00 0.00 0.00 72 1015.9
20260505112512 66 288 5.0 10.0 0.00 0.00 0.00 73 1015.9
20260505112012 67 234 3.0 10.0 0.00 0.00 0.00 74 1015.9
20260505111516 66 291 4.0 11.0 0.00 0.00 0.00 76 1015.8
20260505111010 66 269 6.0 11.0 0.00 0.00 0.00 75 1015.9
20260505110508 66 332 4.0 10.0 0.00 0.00 0.00 76 1015.9
20260505102056 66 292 3.0 7.0 0.00 0.00 0.00 76 1015.8
20260505101556 65 205 1.0 7.0 0.00 0.00 0.00 78 1015.8
20260505101054 65 210 2.0 7.0 0.00 0.00 0.00 78 1015.8
20260505100553 65 263 3.0 8.0 0.00 0.00 0.00 78 1015.8
20260505100052 65 259 5.0 8.0 0.00 0.00 0.00 78 1015.8
20260505095550 65 258 3.0 8.0 0.00 0.00 0.00 79 1015.7
20260505095051 65 257 5.0 9.0 0.00 0.00 0.00 79 1015.7
20260505094548 65 271 6.0 9.0 0.00 0.00 0.00 80 1015.6
20260505094046 66 271 5.0 8.0 0.00 0.00 0.00 79 1015.6
20260505093545 66 288 4.0 8.0 0.00 0.00 0.00 77 1015.4
20260505093054 66 260 5.0 8.0 0.00 0.00 0.00 76 1015.4
20260505092542 67 298 3.0 7.0 0.00 0.00 0.00 75 1015.4
20260505092041 67 281 2.0 4.0 0.00 0.00 0.00 73 1015.3
20260505091547 67 250 0.0 3.0 0.00 0.00 0.00 74 1015.2
20260505091037 66 250 0.0 2.0 0.00 0.00 0.00 74 1015.3
20260505090536 66 250 0.0 2.0 0.00 0.00 0.00 74 1015.2
20260505090035 65 250 0.0 4.0 0.00 0.00 0.00 75 1015.3
20260505085535 65 250 1.0 4.0 0.00 0.00 0.00 75 1015.3
20260505085035 65 282 0.0 4.0 0.00 0.00 0.00 76 1015.3
20260505084531 65 290 1.0 4.0 0.00 0.00 0.00 76 1015.2
20260505084030 65 307 2.0 5.0 0.00 0.00 0.00 75 1015.3
20260505083527 66 296 2.0 4.0 0.00 0.00 0.00 74 1015.2
20260505083027 66 332 1.0 3.0 0.00 0.00 0.00 73 1015.0
20260505082525 65 355 1.0 3.0 0.00 0.00 0.00 73 1014.8
20260505082024 65 109 0.0 3.0 0.00 0.00 0.00 75 1014.8
20260505081525 64 105 2.0 3.0 0.00 0.00 0.00 76 1014.8
20260505081024 64 80 1.0 3.0 0.00 0.00 0.00 77 1014.8
20260505080519 63 72 2.0 3.0 0.00 0.00 0.00 78 1014.8
20260505080018 63 108 1.0 3.0 0.00 0.00 0.00 80 1014.8
20260505075517 62 92 2.0 4.0 0.00 0.00 0.00 80 1014.9
20260505075021 62 92 2.0 4.0 0.00 0.00 0.00 80 1014.9
20260505074516 62 69 2.0 4.0 0.00 0.00 0.00 79 1014.8
20260505074016 62 74 3.0 7.0 0.00 0.00 0.00 79 1014.8
20260505073520 62 96 4.0 6.0 0.00 0.00 0.00 80 1014.8
20260505073016 62 112 3.0 4.0 0.00 0.00 0.00 80 1014.8
20260505072514 62 113 3.0 4.0 0.00 0.00 0.00 80 1014.7
20260505072013 62 110 3.0 4.0 0.00 0.00 0.00 79 1014.8
20260505071528 62 96 3.0 6.0 0.00 0.00 0.00 79 1014.7
20260505071012 62 116 3.0 4.0 0.00 0.00 0.00 79 1014.7
20260505070516 62 128 2.0 4.0 0.00 0.00 0.00 80 1014.8
20260505070010 62 131 2.0 6.0 0.00 0.00 0.00 80 1014.7
20260505065509 61 129 3.0 7.0 0.00 0.00 0.00 80 1014.7
20260505065008 62 138 3.0 5.0 0.00 0.00 0.00 78 1014.6
20260505064509 62 74 1.0 3.0 0.00 0.00 0.00 78 1014.5
20260505064007 62 74 2.0 4.0 0.00 0.00 0.00 78 1014.4
20260505063507 62 74 1.0 5.0 0.00 0.00 0.00 78 1014.3
20260505063007 62 74 3.0 5.0 0.00 0.00 0.00 78 1014.2
20260505062507 62 92 3.0 6.0 0.00 0.00 0.00 78 1014.2
20260505062007 62 84 3.0 6.0 0.00 0.00 0.00 78 1014.1
20260505061507 62 84 3.0 4.0 0.00 0.00 0.00 78 1014.1
20260505061007 62 84 2.0 3.0 0.00 0.00 0.00 79 1014.1
20260505060505 62 84 1.0 4.0 0.00 0.00 0.00 78 1014.2
20260505060024 62 84 2.0 5.0 0.00 0.00 0.00 77 1014.2
20260505055506 62 84 2.0 5.0 0.00 0.00 0.00 77 1014.1
20260505055006 62 13 2.0 8.0 0.00 0.00 0.00 77 1014.1
20260505054506 62 115 6.0 9.0 0.00 0.00 0.00 77 1014.0
20260505054011 62 107 7.0 9.0 0.00 0.00 0.00 77 1014.0
20260505053504 62 117 6.0 9.0 0.00 0.00 0.00 77 1013.9
20260505053004 62 115 6.0 8.0 0.00 0.00 0.00 77 1013.9
20260505052503 62 128 6.0 8.0 0.00 0.00 0.00 77 1013.9
20260505052003 62 102 5.0 8.0 0.00 0.00 0.00 78 1014.0
20260505051504 62 112 6.0 8.0 0.00 0.00 0.00 77 1014.1
20260505051002 62 84 5.0 7.0 0.00 0.00 0.00 78 1014.2
20260505050504 61 113 5.0 7.0 0.00 0.00 0.00 79 1014.2
20260505041603 62 122 5.0 8.0 0.00 0.00 0.00 77 1014.4
20260505041058 62 118 6.0 8.0 0.00 0.00 0.00 77 1014.3
20260505040556 62 115 4.0 7.0 0.00 0.00 0.00 77 1014.5
20260505040056 62 111 5.0 8.0 0.00 0.00 0.00 77 1014.5
20260505035555 63 111 5.0 8.0 0.00 0.00 0.00 76 1014.6
20260505035059 63 96 6.0 9.0 0.00 0.00 0.00 76 1014.6
20260505034554 63 109 6.0 9.0 0.00 0.00 0.00 77 1014.6
20260505034053 62 113 4.0 8.0 0.00 0.00 0.00 77 1014.6
20260505033552 62 116 6.0 8.0 0.00 0.00 0.00 78 1014.6
20260505033052 62 114 6.0 8.0 0.00 0.00 0.00 79 1014.6
20260505032551 61 115 6.0 7.0 0.00 0.00 0.00 79 1014.7
20260505032055 62 119 4.0 7.0 0.00 0.00 0.00 78 1014.7
20260505031554 62 112 3.0 6.0 0.00 0.00 0.00 78 1014.9
20260505031050 62 86 2.0 6.0 0.00 0.00 0.00 78 1014.9
20260505030551 62 98 2.0 7.0 0.00 0.00 0.00 78 1014.9
20260505030049 62 119 3.0 8.0 0.00 0.00 0.00 78 1014.8
20260505025550 62 121 4.0 8.0 0.00 0.00 0.00 77 1014.8
20260505025049 62 109 6.0 9.0 0.00 0.00 0.00 78 1014.8
20260505024552 61 112 6.0 10.0 0.00 0.00 0.00 79 1014.8
20260505024046 61 107 8.0 10.0 0.00 0.00 0.00 79 1014.8
20260505023546 61 108 7.0 11.0 0.00 0.00 0.00 79 1014.9
20260505023051 61 120 8.0 11.0 0.00 0.00 0.00 79 1014.8
20260505022545 61 122 8.0 10.0 0.00 0.00 0.00 79 1014.8
20260505022044 61 118 8.0 10.0 0.00 0.00 0.00 80 1014.8
20260505021543 61 107 4.0 9.0 0.00 0.00 0.00 81 1015.0
20260505021042 61 111 4.0 9.0 0.00 0.00 0.00 81 1015.0
20260505020540 60 90 6.0 10.0 0.00 0.00 0.00 82 1015.2
20260505020039 60 122 6.0 9.0 0.00 0.00 0.00 84 1015.4
20260505015538 60 94 0.0 6.0 0.00 0.00 0.00 85 1015.5
20260505015040 60 94 2.0 4.0 0.00 0.00 0.00 85 1015.6
20260505014536 60 94 1.0 3.0 0.00 0.00 0.00 85 1015.8
20260505014040 60 94 1.0 3.0 0.00 0.00 0.00 86 1016.0
20260505013535 60 94 1.0 3.0 0.00 0.00 0.00 86 1015.8
20260505013053 60 94 2.0 3.0 0.00 0.00 0.00 86 1015.8
20260505012539 60 94 0.0 0.0 0.00 0.00 0.00 86 1015.8
20260505012034 60 125 0.0 0.0 0.00 0.00 0.00 86 1016.0
20260505011535 60 125 0.0 2.0 0.00 0.00 0.00 87 1016.1
20260505011033 60 125 0.0 3.0 0.00 0.00 0.00 87 1016.2
20260505010532 60 89 1.0 5.0 0.00 0.00 0.00 87 1016.1
20260505010034 60 140 1.0 5.0 0.00 0.00 0.00 88 1016.2
20260505005534 60 165 3.0 5.0 0.00 0.00 0.00 88 1016.3
20260505005031 60 221 1.0 3.0 0.00 0.00 0.00 90 1016.2
20260505004531 60 72 1.0 4.0 0.00 0.00 0.00 90 1016.1
20260505004030 60 72 1.0 8.0 0.00 0.00 0.00 90 1016.1
20260505003533 60 84 2.0 9.0 0.00 0.00 0.00 91 1016.3
20260505003032 59 96 5.0 8.0 0.00 0.00 0.00 93 1016.2
20260505002527 59 124 4.0 7.0 0.00 0.00 0.00 93 1016.2
20260505002026 60 147 3.0 5.0 0.00 0.00 0.00 94 1016.5
20260505001525 60 137 2.0 4.0 0.00 0.00 0.00 94 1016.7
20260505001024 60 132 3.0 4.0 0.00 0.00 0.00 94 1016.9
20260505000526 60 135 1.0 4.0 0.00 0.00 0.00 94 1017.0
20260505000026 60 137 3.0 7.0 0.00 0.00 0.00 94 1016.9
20260504235523 60 170 3.0 5.0 0.00 0.00 0.00 93 1017.0
20260504235022 60 279 1.0 3.0 0.00 0.00 0.00 93 1017.0
20260504234521 60 279 1.0 3.0 0.00 0.00 0.00 93 1017.0
20260504234026 60 38 0.0 2.0 0.00 0.00 0.00 93 1016.8
20260504233521 60 38 0.0 3.0 0.00 0.00 0.00 94 1016.7
20260504233020 60 38 1.0 3.0 0.00 0.00 0.00 94 1016.6
20260504232519 60 38 2.0 4.0 0.00 0.00 0.00 94 1016.6
20260504232019 60 38 2.0 4.0 0.00 0.00 0.00 93 1016.7
20260504231519 60 38 2.0 3.0 0.00 0.00 0.00 94 1016.8
20260504231018 60 28 0.0 2.0 0.00 0.00 0.00 94 1016.9
20260504230517 60 28 0.0 3.0 0.00 0.00 0.00 94 1016.9
20260504230016 59 28 1.0 3.0 0.00 0.00 0.00 94 1016.8
20260504225516 59 91 1.0 3.0 0.00 0.00 0.00 93 1016.8
20260504225017 60 196 0.0 2.0 0.00 0.00 0.00 94 1016.8
20260504224519 61 213 0.0 3.0 0.00 0.00 0.00 94 1017.0
20260504224014 61 213 0.0 3.0 0.00 0.00 0.00 94 1016.9
20260504223515 61 213 1.0 3.0 0.00 0.00 0.00 94 1016.9
20260504223015 61 188 1.0 4.0 0.00 0.00 0.00 94 1016.9
20260504222514 61 210 1.0 4.0 0.00 0.00 0.00 94 1016.9
20260504222019 61 222 2.0 5.0 0.00 0.00 0.00 94 1016.9
20260504221514 61 244 4.0 5.0 0.00 0.00 0.00 93 1016.8
20260504221014 61 239 2.0 4.0 0.00 0.00 0.00 93 1016.8
20260504220513 61 219 2.0 5.0 0.00 0.00 0.00 93 1016.8
20260504220016 61 180 2.0 5.0 0.00 0.00 0.00 93 1016.7
20260504215514 61 180 1.0 4.0 0.00 0.00 0.00 93 1016.7
20260504215014 61 182 3.0 5.0 0.00 0.00 0.00 93 1016.5
20260504214520 61 199 3.0 5.0 0.00 0.00 0.00 93 1016.6
20260504214017 61 168 3.0 6.0 0.00 0.00 0.00 93 1016.6